Time,TemperatureF,DewpointF,PressureIn,WindDirection,WindDirectionDegrees,WindSpeedMPH,WindSpeedGustMPH,Humidity,HourlyPrecipIn,Conditions,Clouds,dailyrainin,SolarRadiationWatts/m^2,SoftwareType,DateUTC
2013-09-24 00:01:00,45.9,43.7,30.07,NNE,15,0.0,0.0,92,0.00,,CLR,0.00,0.00,VWS V14.01,2013-09-24 04:01:00,
2013-09-24 00:02:00,45.8,43.6,30.07,NNE,14,0.0,0.0,92,0.00,,CLR,0.00,0.00,VWS V14.01,2013-09-24 04:02:00,
2013-09-24 00:03:00,45.8,43.6,30.07,NNE,15,0.0,0.0,92,0.00,,CLR,0.00,0.00,VWS V14.01,2013-09-24 04:03:00,
2013-09-24 00:04:00,45.8,43.6,30.07,NNE,15,0.0,0.0,92,0.00,,CLR,0.00,0.00,VWS V14.01,2013-09-24 04:04:00,
2013-09-24 00:09:00,45.7,43.5,30.07,NNE,15,0.0,0.0,92,0.00,,CLR,0.00,0.00,VWS V14.01,2013-09-24 04:09:00,
2013-09-24 00:14:00,45.6,43.7,30.07,NNE,15,0.0,0.0,93,0.00,,CLR,0.00,0.00,VWS V14.01,2013-09-24 04:14:00,
2013-09-24 00:19:00,45.5,43.6,30.07,NNE,15,0.0,0.0,93,0.00,,CLR,0.00,0.00,VWS V14.01,2013-09-24 04:19:00,
2013-09-24 00:24:00,45.3,43.4,30.07,NNE,14,0.0,0.0,93,0.00,,CLR,0.00,0.00,VWS V14.01,2013-09-24 04:24:00,
2013-09-24 00:29:00,45.2,43.0,30.07,NNE,14,0.0,0.0,92,0.00,,CLR,0.00,0.00,VWS V14.01,2013-09-24 04:29:00,
2013-09-24 00:34:00,45.1,43.2,30.07,NNE,15,0.0,0.0,93,0.00,,CLR,0.00,0.00,VWS V14.01,2013-09-24 04:34:00,
2013-09-24 00:39:00,45.0,43.1,30.07,NNE,15,0.0,0.0,93,0.00,,CLR,0.00,0.00,VWS V14.01,2013-09-24 04:39:00,
2013-09-24 00:45:00,44.9,43.0,30.07,NNE,15,0.0,0.0,93,0.00,,CLR,0.00,0.00,VWS V14.01,2013-09-24 04:45:00,
2013-09-24 00:50:00,44.7,42.8,30.07,NNE,15,0.0,0.0,93,0.00,,CLR,0.00,0.00,VWS V14.01,2013-09-24 04:50:00,
2013-09-24 00:55:00,44.7,42.8,30.07,NNE,14,0.0,0.0,93,0.00,,CLR,0.00,0.00,VWS V14.01,2013-09-24 04:55:00,
2013-09-24 01:00:00,44.7,42.8,30.07,NNE,15,0.0,0.0,93,0.00,,CLR,0.00,0.00,VWS V14.01,2013-09-24 05:00:00,
2013-09-24 01:05:00,44.7,42.8,30.07,NNE,15,0.0,0.0,93,0.00,,CLR,0.00,0.00,VWS V14.01,2013-09-24 05:05:00,
2013-09-24 01:10:00,44.6,43.0,30.07,NNE,14,0.0,0.0,94,0.00,,CLR,0.00,0.00,VWS V14.01,2013-09-24 05:10:00,
2013-09-24 01:16:00,44.6,43.0,30.07,NNE,14,0.0,0.0,94,0.00,,CLR,0.00,0.00,VWS V14.01,2013-09-24 05:16:00,
2013-09-24 01:21:00,44.5,42.9,30.07,NNE,15,0.0,0.0,94,0.00,,CLR,0.00,0.00,VWS V14.01,2013-09-24 05:21:00,
2013-09-24 01:26:00,44.3,42.7,30.07,NNE,14,0.0,0.0,94,0.00,,CLR,0.00,0.00,VWS V14.01,2013-09-24 05:26:00,
2013-09-24 01:31:00,44.3,42.7,30.07,NNE,15,0.0,0.0,94,0.00,,CLR,0.00,0.00,VWS V14.01,2013-09-24 05:31:00,
2013-09-24 01:36:00,44.1,42.5,30.08,NNE,15,1.0,1.0,94,0.00,,CLR,0.00,0.00,VWS V14.01,2013-09-24 05:36:00,
2013-09-24 01:41:00,44.1,42.5,30.08,NNE,15,0.0,0.0,94,0.00,,CLR,0.00,0.00,VWS V14.01,2013-09-24 05:41:00,
2013-09-24 01:47:00,44.0,42.4,30.08,NNE,14,0.0,0.0,94,0.00,,CLR,0.00,0.00,VWS V14.01,2013-09-24 05:47:00,
2013-09-24 01:52:00,43.9,42.3,30.08,NNE,14,0.0,0.0,94,0.00,,CLR,0.00,0.00,VWS V14.01,2013-09-24 05:52:00,
2013-09-24 01:57:00,43.8,42.2,30.08,NNE,15,0.0,0.0,94,0.00,,CLR,0.00,0.00,VWS V14.01,2013-09-24 05:57:00,
2013-09-24 02:02:00,43.7,42.1,30.08,NNE,14,0.0,0.0,94,0.00,,CLR,0.00,0.00,VWS V14.01,2013-09-24 06:02:00,
2013-09-24 02:07:00,43.6,42.0,30.08,NNE,15,0.0,0.0,94,0.00,,CLR,0.00,0.00,VWS V14.01,2013-09-24 06:07:00,
2013-09-24 02:12:00,43.5,41.9,30.09,NNE,14,0.0,0.0,94,0.00,,CLR,0.00,0.00,VWS V14.01,2013-09-24 06:12:00,
2013-09-24 02:17:00,43.4,41.8,30.09,NNE,15,0.0,0.0,94,0.00,,CLR,0.00,0.00,VWS V14.01,2013-09-24 06:17:00,
2013-09-24 02:22:00,43.3,41.7,30.09,NNE,14,0.0,0.0,94,0.00,,CLR,0.00,0.00,VWS V14.01,2013-09-24 06:22:00,
2013-09-24 02:28:00,43.2,41.6,30.09,NNE,15,0.0,0.0,94,0.00,,CLR,0.00,0.00,VWS V14.01,2013-09-24 06:28:00,
2013-09-24 02:33:00,43.1,41.8,30.09,NNE,14,0.0,0.0,95,0.00,,CLR,0.00,0.00,VWS V14.01,2013-09-24 06:33:00,
2013-09-24 02:38:00,43.0,41.4,30.09,NNE,15,0.0,0.0,94,0.00,,CLR,0.00,0.00,VWS V14.01,2013-09-24 06:38:00,
2013-09-24 02:43:00,42.9,41.6,30.09,NNE,15,0.0,0.0,95,0.00,,CLR,0.00,0.00,VWS V14.01,2013-09-24 06:43:00,
2013-09-24 02:48:00,42.9,41.6,30.09,NNE,15,0.0,0.0,95,0.00,,CLR,0.00,0.00,VWS V14.01,2013-09-24 06:48:00,
2013-09-24 02:53:00,42.8,41.5,30.09,NNE,15,0.0,0.0,95,0.00,,CLR,0.00,0.00,VWS V14.01,2013-09-24 06:53:00,
2013-09-24 02:59:00,42.7,41.4,30.09,NNE,15,0.0,0.0,95,0.00,,CLR,0.00,0.00,VWS V14.01,2013-09-24 06:59:00,
2013-09-24 03:04:00,42.6,41.3,30.09,NNE,14,0.0,0.0,95,0.00,,CLR,0.00,0.00,VWS V14.01,2013-09-24 07:04:00,
2013-09-24 03:09:00,42.6,41.3,30.09,NNE,15,0.0,0.0,95,0.00,,CLR,0.00,0.00,VWS V14.01,2013-09-24 07:09:00,
2013-09-24 03:14:00,42.6,41.3,30.09,NNE,15,0.0,0.0,95,0.00,,CLR,0.00,0.00,VWS V14.01,2013-09-24 07:14:00,
2013-09-24 03:19:00,42.6,41.3,30.09,NNE,15,0.0,0.0,95,0.00,,CLR,0.00,0.00,VWS V14.01,2013-09-24 07:19:00,
2013-09-24 03:24:00,42.6,41.3,30.09,NNE,15,0.0,0.0,95,0.00,,CLR,0.00,0.00,VWS V14.01,2013-09-24 07:24:00,
2013-09-24 03:29:00,42.6,41.3,30.08,NNE,15,0.0,0.0,95,0.00,,CLR,0.00,0.00,VWS V14.01,2013-09-24 07:29:00,
2013-09-24 03:34:00,42.6,41.3,30.08,NNE,14,0.0,0.0,95,0.00,,CLR,0.00,0.00,VWS V14.01,2013-09-24 07:34:00,
2013-09-24 03:39:00,42.6,41.3,30.08,NNE,15,0.0,0.0,95,0.00,,CLR,0.00,0.00,VWS V14.01,2013-09-24 07:39:00,
2013-09-24 03:44:00,42.6,41.3,30.08,NNE,15,0.0,0.0,95,0.00,,CLR,0.00,0.00,VWS V14.01,2013-09-24 07:44:00,
2013-09-24 03:49:00,42.7,41.6,30.08,NNE,15,0.0,0.0,96,0.00,,CLR,0.00,0.00,VWS V14.01,2013-09-24 07:49:00,
2013-09-24 03:55:00,42.8,41.7,30.08,NNE,15,0.0,0.0,96,0.00,,CLR,0.00,0.00,VWS V14.01,2013-09-24 07:55:00,
2013-09-24 04:00:00,42.8,41.7,30.08,NNE,15,0.0,0.0,96,0.00,,CLR,0.00,0.00,VWS V14.01,2013-09-24 08:00:00,
2013-09-24 04:05:00,42.9,41.8,30.08,NNE,15,0.0,0.0,96,0.00,,CLR,0.00,0.00,VWS V14.01,2013-09-24 08:05:00,
2013-09-24 04:10:00,42.8,41.7,30.08,NNE,15,0.0,0.0,96,0.00,,CLR,0.00,0.00,VWS V14.01,2013-09-24 08:10:00,
2013-09-24 04:15:00,42.7,41.4,30.08,NNE,15,0.0,0.0,95,0.00,,CLR,0.00,0.00,VWS V14.01,2013-09-24 08:15:00,
2013-09-24 04:21:00,42.6,41.3,30.08,NNE,14,0.0,0.0,95,0.00,,CLR,0.00,0.00,VWS V14.01,2013-09-24 08:21:00,
2013-09-24 04:26:00,42.5,41.4,30.08,NNE,15,0.0,0.0,96,0.00,,CLR,0.00,0.00,VWS V14.01,2013-09-24 08:26:00,
2013-09-24 04:31:00,42.4,41.3,30.08,NNE,14,0.0,0.0,96,0.00,,CLR,0.00,0.00,VWS V14.01,2013-09-24 08:31:00,
2013-09-24 04:36:00,42.3,41.0,30.08,NNE,14,0.0,0.0,95,0.00,,CLR,0.00,0.00,VWS V14.01,2013-09-24 08:36:00,
2013-09-24 04:42:00,42.2,40.9,30.08,NNE,15,0.0,0.0,95,0.00,,CLR,0.00,0.00,VWS V14.01,2013-09-24 08:42:00,
2013-09-24 04:47:00,42.0,40.7,30.08,NNE,15,0.0,0.0,95,0.00,,CLR,0.00,0.00,VWS V14.01,2013-09-24 08:47:00,
2013-09-24 04:52:00,41.9,40.8,30.08,NNE,15,0.0,0.0,96,0.00,,CLR,0.00,0.00,VWS V14.01,2013-09-24 08:52:00,
2013-09-24 04:57:00,41.8,40.8,30.08,NNE,15,0.0,0.0,96,0.00,,CLR,0.00,0.00,VWS V14.01,2013-09-24 08:57:00,
2013-09-24 05:02:00,41.6,40.3,30.08,NNE,14,0.0,0.0,95,0.00,,CLR,0.00,0.00,VWS V14.01,2013-09-24 09:02:00,
2013-09-24 05:08:00,41.5,40.2,30.08,NNE,14,0.0,0.0,95,0.00,,CLR,0.00,0.00,VWS V14.01,2013-09-24 09:08:00,
2013-09-24 05:13:00,41.4,40.3,30.08,NNE,15,0.0,0.0,96,0.00,,CLR,0.00,0.00,VWS V14.01,2013-09-24 09:13:00,
2013-09-24 05:18:00,41.2,40.2,30.08,NNE,15,0.0,0.0,96,0.00,,CLR,0.00,0.00,VWS V14.01,2013-09-24 09:18:00,
2013-09-24 05:23:00,41.0,39.7,30.08,NNE,14,0.0,0.0,95,0.00,,CLR,0.00,0.00,VWS V14.01,2013-09-24 09:23:00,
2013-09-24 05:28:00,40.8,39.5,30.08,NNE,15,0.0,0.0,95,0.00,,CLR,0.00,0.00,VWS V14.01,2013-09-24 09:28:00,
2013-09-24 05:33:00,40.7,39.4,30.09,NNE,15,0.0,0.0,95,0.00,,CLR,0.00,0.00,VWS V14.01,2013-09-24 09:33:00,
2013-09-24 05:38:00,40.5,39.2,30.09,NNE,15,0.0,0.0,95,0.00,,CLR,0.00,0.00,VWS V14.01,2013-09-24 09:38:00,
2013-09-24 05:43:00,40.3,39.0,30.09,NNE,15,0.0,0.0,95,0.00,,CLR,0.00,0.00,VWS V14.01,2013-09-24 09:43:00,
2013-09-24 05:48:00,40.1,38.8,30.09,NNE,14,0.0,0.0,95,0.00,,CLR,0.00,0.00,VWS V14.01,2013-09-24 09:48:00,
2013-09-24 05:53:00,40.0,38.7,30.09,NNE,15,0.0,0.0,95,0.00,,CLR,0.00,0.00,VWS V14.01,2013-09-24 09:53:00,
2013-09-24 05:58:00,39.8,38.5,30.09,NNE,14,0.0,0.0,95,0.00,,CLR,0.00,0.00,VWS V14.01,2013-09-24 09:58:00,
2013-09-24 06:04:00,39.7,38.4,30.09,NNE,14,0.0,0.0,95,0.00,,CLR,0.00,0.00,VWS V14.01,2013-09-24 10:04:00,
2013-09-24 06:09:00,39.6,38.3,30.09,NNE,14,0.0,0.0,95,0.00,,CLR,0.00,0.00,VWS V14.01,2013-09-24 10:09:00,
2013-09-24 06:14:00,39.5,38.5,30.09,NNE,15,0.0,0.0,96,0.00,,CLR,0.00,0.00,VWS V14.01,2013-09-24 10:14:00,
2013-09-24 06:19:00,39.5,38.5,30.09,NNE,15,0.0,0.0,96,0.00,,CLR,0.00,0.00,VWS V14.01,2013-09-24 10:19:00,
2013-09-24 06:24:00,39.4,38.4,30.09,NNE,14,0.0,0.0,96,0.00,,CLR,0.00,0.00,VWS V14.01,2013-09-24 10:24:00,
2013-09-24 06:29:00,39.4,38.1,30.09,NNE,15,0.0,0.0,95,0.00,,CLR,0.00,0.00,VWS V14.01,2013-09-24 10:29:00,
2013-09-24 06:34:00,39.3,38.0,30.09,NNE,15,0.0,0.0,95,0.00,,CLR,0.00,0.00,VWS V14.01,2013-09-24 10:34:00,
2013-09-24 06:39:00,39.3,38.3,30.09,NNE,14,0.0,0.0,96,0.00,,CLR,0.00,0.00,VWS V14.01,2013-09-24 10:39:00,
2013-09-24 06:44:00,39.2,38.2,30.09,NNE,15,0.0,0.0,96,0.00,,CLR,0.00,0.00,VWS V14.01,2013-09-24 10:44:00,
2013-09-24 06:49:00,39.2,38.2,30.09,NNE,15,0.0,0.0,96,0.00,,CLR,0.00,0.00,VWS V14.01,2013-09-24 10:49:00,
2013-09-24 06:54:00,39.2,38.2,30.10,NNE,15,0.0,0.0,96,0.00,,CLR,0.00,0.00,VWS V14.01,2013-09-24 10:54:00,
2013-09-24 06:59:00,39.2,38.2,30.10,NNE,15,0.0,0.0,96,0.00,,CLR,0.00,0.00,VWS V14.01,2013-09-24 10:59:00,
2013-09-24 07:05:00,39.2,38.2,30.10,NNE,14,0.0,0.0,96,0.00,,CLR,0.00,5.00,VWS V14.01,2013-09-24 11:05:00,
2013-09-24 07:10:00,39.2,38.2,30.10,NNE,14,0.0,0.0,96,0.00,,CLR,0.00,7.00,VWS V14.01,2013-09-24 11:10:00,
2013-09-24 07:15:00,39.2,38.2,30.10,NNE,15,0.0,0.0,96,0.00,,CLR,0.00,11.00,VWS V14.01,2013-09-24 11:15:00,
2013-09-24 07:20:00,39.3,38.3,30.10,NNE,14,0.0,0.0,96,0.00,,CLR,0.00,12.00,VWS V14.01,2013-09-24 11:20:00,
2013-09-24 07:25:00,39.3,38.3,30.10,NNE,14,0.0,0.0,96,0.00,,CLR,0.00,14.00,VWS V14.01,2013-09-24 11:25:00,
2013-09-24 07:30:00,39.4,38.4,30.10,NNE,15,0.0,0.0,96,0.00,,CLR,0.00,16.00,VWS V14.01,2013-09-24 11:30:00,
2013-09-24 07:35:00,39.6,38.6,30.10,NNE,15,0.0,0.0,96,0.00,,CLR,0.00,18.00,VWS V14.01,2013-09-24 11:35:00,
2013-09-24 07:40:00,39.7,38.7,30.10,NNE,15,0.0,0.0,96,0.00,,CLR,0.00,19.00,VWS V14.01,2013-09-24 11:40:00,
2013-09-24 07:45:00,40.0,39.2,30.10,NNE,15,0.0,0.0,97,0.00,,CLR,0.00,21.00,VWS V14.01,2013-09-24 11:45:00,
2013-09-24 07:50:00,40.6,39.8,30.10,NNE,14,0.0,1.0,97,0.00,,CLR,0.00,21.00,VWS V14.01,2013-09-24 11:50:00,
2013-09-24 07:56:00,41.4,40.6,30.10,NNE,15,0.0,1.0,97,0.00,,CLR,0.00,23.00,VWS V14.01,2013-09-24 11:56:00,
2013-09-24 08:01:00,42.1,41.6,30.10,NNE,15,0.0,0.0,98,0.00,,CLR,0.00,49.00,VWS V14.01,2013-09-24 12:01:00,
2013-09-24 08:06:00,43.4,42.9,30.10,NNE,14,0.0,0.0,98,0.00,,CLR,0.00,63.00,VWS V14.01,2013-09-24 12:06:00,
2013-09-24 08:11:00,44.1,43.6,30.10,NNE,14,0.0,1.0,98,0.00,,CLR,0.00,102.00,VWS V14.01,2013-09-24 12:11:00,
2013-09-24 08:16:00,44.5,44.0,30.10,NNE,14,0.0,0.0,98,0.00,,CLR,0.00,132.00,VWS V14.01,2013-09-24 12:16:00,
2013-09-24 08:21:00,44.9,44.4,30.10,NNE,14,0.0,0.0,98,0.00,,CLR,0.00,127.00,VWS V14.01,2013-09-24 12:21:00,
2013-09-24 08:26:00,45.3,44.8,30.10,NNE,14,0.0,0.0,98,0.00,,CLR,0.00,127.00,VWS V14.01,2013-09-24 12:26:00,
2013-09-24 08:31:00,45.5,45.0,30.10,NNE,15,0.0,1.0,98,0.00,,CLR,0.00,141.00,VWS V14.01,2013-09-24 12:31:00,
2013-09-24 08:36:00,45.8,45.3,30.10,NNE,15,0.0,0.0,98,0.00,,CLR,0.00,139.00,VWS V14.01,2013-09-24 12:36:00,
2013-09-24 08:41:00,46.2,45.7,30.10,NNE,15,0.0,0.0,98,0.00,,CLR,0.00,142.00,VWS V14.01,2013-09-24 12:41:00,
2013-09-24 08:46:00,46.7,46.2,30.10,NNE,15,0.0,0.0,98,0.00,,CLR,0.00,160.00,VWS V14.01,2013-09-24 12:46:00,
2013-09-24 08:51:00,47.0,46.5,30.10,NNE,15,0.0,0.0,98,0.00,,CLR,0.00,183.00,VWS V14.01,2013-09-24 12:51:00,
2013-09-24 08:56:00,47.5,47.0,30.10,NNE,15,0.0,1.0,98,0.00,,CLR,0.00,204.00,VWS V14.01,2013-09-24 12:56:00,
2013-09-24 09:01:00,47.7,46.9,30.10,NNW,339,0.0,2.0,97,0.00,,CLR,0.00,223.00,VWS V14.01,2013-09-24 13:01:00,
2013-09-24 09:06:00,48.1,47.3,30.10,NNW,338,0.0,1.0,97,0.00,,CLR,0.00,243.00,VWS V14.01,2013-09-24 13:06:00,
2013-09-24 09:12:00,48.5,47.7,30.11,NNW,342,0.0,2.0,97,0.00,,CLR,0.00,258.00,VWS V14.01,2013-09-24 13:12:00,
2013-09-24 09:17:00,48.8,48.0,30.11,North,360,1.0,1.0,97,0.00,,CLR,0.00,276.00,VWS V14.01,2013-09-24 13:17:00,
2013-09-24 09:22:00,49.2,48.1,30.11,NNE,13,3.0,4.0,96,0.00,,CLR,0.00,297.00,VWS V14.01,2013-09-24 13:22:00,
2013-09-24 09:27:00,49.4,48.0,30.10,NNW,348,0.0,5.0,95,0.00,,CLR,0.00,320.00,VWS V14.01,2013-09-24 13:27:00,
2013-09-24 09:32:00,49.6,48.0,30.10,NNW,348,0.0,2.0,94,0.00,,CLR,0.00,334.00,VWS V14.01,2013-09-24 13:32:00,
2013-09-24 09:37:00,50.3,48.6,30.11,NNW,348,0.0,0.0,94,0.00,,CLR,0.00,353.00,VWS V14.01,2013-09-24 13:37:00,
2013-09-24 09:42:00,50.8,48.8,30.11,North,349,0.0,1.0,93,0.00,,CLR,0.00,369.00,VWS V14.01,2013-09-24 13:42:00,
2013-09-24 09:47:00,50.9,48.7,30.10,NNW,348,0.0,2.0,92,0.00,,CLR,0.00,392.00,VWS V14.01,2013-09-24 13:47:00,
2013-09-24 09:52:00,51.4,48.9,30.10,North,355,0.0,2.0,91,0.00,,CLR,0.00,410.00,VWS V14.01,2013-09-24 13:52:00,
2013-09-24 09:57:00,51.8,48.7,30.10,North,355,0.0,1.0,89,0.00,,CLR,0.00,438.00,VWS V14.01,2013-09-24 13:57:00,
2013-09-24 10:02:00,52.4,49.0,30.10,North,355,0.0,0.0,88,0.00,,CLR,0.00,464.00,VWS V14.01,2013-09-24 14:02:00,
2013-09-24 10:07:00,52.9,49.5,30.10,North,355,0.0,1.0,88,0.00,,CLR,0.00,476.00,VWS V14.01,2013-09-24 14:07:00,
2013-09-24 10:12:00,53.2,49.4,30.10,North,350,0.0,2.0,87,0.00,,CLR,0.00,461.00,VWS V14.01,2013-09-24 14:12:00,
2013-09-24 10:18:00,53.8,49.7,30.09,North,350,0.0,0.0,86,0.00,,CLR,0.00,443.00,VWS V14.01,2013-09-24 14:18:00,
2013-09-24 10:23:00,54.2,49.8,30.10,North,350,0.0,2.0,85,0.00,,CLR,0.00,424.00,VWS V14.01,2013-09-24 14:23:00,
2013-09-24 10:28:00,54.4,49.7,30.09,North,351,0.0,1.0,84,0.00,,CLR,0.00,404.00,VWS V14.01,2013-09-24 14:28:00,
2013-09-24 10:33:00,54.9,50.2,30.09,NNW,336,0.0,1.0,84,0.00,,CLR,0.00,396.00,VWS V14.01,2013-09-24 14:33:00,
2013-09-24 10:38:00,55.2,50.5,30.09,NNW,330,0.0,1.0,84,0.00,,CLR,0.00,397.00,VWS V14.01,2013-09-24 14:38:00,
2013-09-24 10:43:00,56.0,50.9,30.09,NNW,330,0.0,1.0,83,0.00,,CLR,0.00,406.00,VWS V14.01,2013-09-24 14:43:00,
2013-09-24 10:48:00,56.6,51.2,30.09,ENE,74,0.0,1.0,82,0.00,,CLR,0.00,424.00,VWS V14.01,2013-09-24 14:48:00,
2013-09-24 10:53:00,56.9,50.8,30.08,North,355,0.0,4.0,80,0.00,,CLR,0.00,446.00,VWS V14.01,2013-09-24 14:53:00,
2013-09-24 10:58:00,57.3,50.8,30.08,North,355,0.0,2.0,79,0.00,,CLR,0.00,471.00,VWS V14.01,2013-09-24 14:58:00,
2013-09-24 11:03:00,57.5,50.4,30.08,North,360,1.0,3.0,77,0.00,,CLR,0.00,504.00,VWS V14.01,2013-09-24 15:03:00,
2013-09-24 11:08:00,57.8,49.6,30.08,NNW,328,0.0,3.0,74,0.00,,CLR,0.00,536.00,VWS V14.01,2013-09-24 15:08:00,
2013-09-24 11:13:00,58.0,50.1,30.08,NNW,328,0.0,1.0,75,0.00,,CLR,0.00,570.00,VWS V14.01,2013-09-24 15:13:00,
2013-09-24 11:19:00,58.4,49.8,30.08,North,350,0.0,2.0,73,0.00,,CLR,0.00,605.00,VWS V14.01,2013-09-24 15:19:00,
2013-09-24 11:24:00,59.0,50.7,30.08,North,10,0.0,4.0,74,0.00,,CLR,0.00,626.00,VWS V14.01,2013-09-24 15:24:00,
2013-09-24 11:29:00,59.0,50.0,30.07,NNW,337,4.0,4.0,72,0.00,,CLR,0.00,629.00,VWS V14.01,2013-09-24 15:29:00,
2013-09-24 11:34:00,59.7,50.3,30.07,WNW,288,0.0,4.0,71,0.00,,CLR,0.00,603.00,VWS V14.01,2013-09-24 15:34:00,
2013-09-24 11:39:00,60.0,50.2,30.07,North,360,2.0,3.0,70,0.00,,CLR,0.00,566.00,VWS V14.01,2013-09-24 15:39:00,
2013-09-24 11:44:00,60.4,50.6,30.07,NNW,348,5.0,5.0,70,0.00,,CLR,0.00,531.00,VWS V14.01,2013-09-24 15:44:00,
2013-09-24 11:49:00,60.6,51.5,30.07,North,355,1.0,2.0,72,0.00,,CLR,0.00,508.00,VWS V14.01,2013-09-24 15:49:00,
2013-09-24 11:54:00,60.8,50.2,30.07,NW,323,0.0,3.0,68,0.00,,CLR,0.00,504.00,VWS V14.01,2013-09-24 15:54:00,
2013-09-24 11:59:00,60.9,50.7,30.07,NNE,21,0.0,2.0,69,0.00,,CLR,0.00,522.00,VWS V14.01,2013-09-24 15:59:00,
2013-09-24 12:04:00,61.4,50.4,30.06,NNE,32,0.0,0.0,67,0.00,,CLR,0.00,550.00,VWS V14.01,2013-09-24 16:04:00,
2013-09-24 12:09:00,61.6,50.1,30.06,NW,325,0.0,4.0,66,0.00,,CLR,0.00,571.00,VWS V14.01,2013-09-24 16:09:00,
2013-09-24 12:14:00,61.6,50.1,30.06,NNE,18,0.0,0.0,66,0.00,,CLR,0.00,577.00,VWS V14.01,2013-09-24 16:14:00,
2013-09-24 12:19:00,62.2,51.1,30.06,NNW,331,1.0,1.0,67,0.00,,CLR,0.00,561.00,VWS V14.01,2013-09-24 16:19:00,
2013-09-24 12:24:00,62.5,50.6,30.05,NW,315,2.0,4.0,65,0.00,,CLR,0.00,547.00,VWS V14.01,2013-09-24 16:24:00,
2013-09-24 12:30:00,62.6,51.5,30.05,North,360,0.0,2.0,67,0.00,,CLR,0.00,541.00,VWS V14.01,2013-09-24 16:30:00,
2013-09-24 12:35:00,62.9,50.1,30.05,North,9,2.0,3.0,63,0.00,,CLR,0.00,570.00,VWS V14.01,2013-09-24 16:35:00,
2013-09-24 12:40:00,63.1,50.3,30.04,NNW,329,4.0,5.0,63,0.00,,CLR,0.00,612.00,VWS V14.01,2013-09-24 16:40:00,
2013-09-24 12:45:00,63.2,50.4,30.04,NNW,331,4.0,6.0,63,0.00,,CLR,0.00,638.00,VWS V14.01,2013-09-24 16:45:00,
2013-09-24 12:50:00,63.6,51.2,30.04,NW,321,0.0,4.0,64,0.00,,CLR,0.00,652.00,VWS V14.01,2013-09-24 16:50:00,
2013-09-24 12:55:00,64.2,50.9,30.04,North,355,2.0,7.0,62,0.00,,CLR,0.00,664.00,VWS V14.01,2013-09-24 16:55:00,
2013-09-24 13:00:00,64.4,52.0,30.03,NNW,331,0.0,1.0,64,0.00,,CLR,0.00,694.00,VWS V14.01,2013-09-24 17:00:00,
2013-09-24 13:05:00,64.7,51.8,30.03,NNW,330,5.0,5.0,63,0.00,,CLR,0.00,726.00,VWS V14.01,2013-09-24 17:05:00,
2013-09-24 13:10:00,64.6,50.4,30.03,NNW,343,0.0,2.0,60,0.00,,CLR,0.00,740.00,VWS V14.01,2013-09-24 17:10:00,
2013-09-24 13:15:00,64.5,50.8,30.03,NW,326,0.0,5.0,61,0.00,,CLR,0.00,740.00,VWS V14.01,2013-09-24 17:15:00,
2013-09-24 13:20:00,65.2,51.9,30.02,NW,313,0.0,3.0,62,0.00,,CLR,0.00,744.00,VWS V14.01,2013-09-24 17:20:00,
2013-09-24 13:26:00,65.6,50.9,30.02,North,350,4.0,8.0,59,0.00,,CLR,0.00,740.00,VWS V14.01,2013-09-24 17:26:00,
2013-09-24 13:31:00,65.6,50.9,30.02,NNW,327,0.0,3.0,59,0.00,,CLR,0.00,742.00,VWS V14.01,2013-09-24 17:31:00,
2013-09-24 13:36:00,66.1,51.4,30.01,SW,215,2.0,4.0,59,0.00,,CLR,0.00,737.00,VWS V14.01,2013-09-24 17:36:00,
2013-09-24 13:41:00,66.2,51.9,30.01,North,350,2.0,4.0,60,0.00,,CLR,0.00,737.00,VWS V14.01,2013-09-24 17:41:00,
2013-09-24 13:46:00,66.5,52.2,30.01,NNE,15,0.0,4.0,60,0.00,,CLR,0.00,733.00,VWS V14.01,2013-09-24 17:46:00,
2013-09-24 13:51:00,67.2,51.9,30.00,North,360,1.0,6.0,58,0.00,,CLR,0.00,729.00,VWS V14.01,2013-09-24 17:51:00,
2013-09-24 13:56:00,67.3,50.6,30.00,NNW,331,4.0,8.0,55,0.00,,CLR,0.00,729.00,VWS V14.01,2013-09-24 17:56:00,
2013-09-24 14:01:00,66.9,50.2,30.00,NNE,19,2.0,7.0,55,0.00,,CLR,0.00,724.00,VWS V14.01,2013-09-24 18:01:00,
2013-09-24 14:06:00,67.0,50.3,29.99,NNW,348,0.0,5.0,55,0.00,,CLR,0.00,721.00,VWS V14.01,2013-09-24 18:06:00,
2013-09-24 14:11:00,67.6,50.4,29.99,NW,314,0.0,7.0,54,0.00,,CLR,0.00,719.00,VWS V14.01,2013-09-24 18:11:00,
2013-09-24 14:16:00,67.9,51.2,29.98,NNW,329,0.0,3.0,55,0.00,,CLR,0.00,715.00,VWS V14.01,2013-09-24 18:16:00,
2013-09-24 14:21:00,68.1,50.8,29.98,NNE,22,5.0,6.0,54,0.00,,CLR,0.00,707.00,VWS V14.01,2013-09-24 18:21:00,
2013-09-24 14:26:00,68.4,50.6,29.98,North,10,0.0,4.0,53,0.00,,CLR,0.00,703.00,VWS V14.01,2013-09-24 18:26:00,
2013-09-24 14:31:00,68.7,50.4,29.98,NNE,29,0.0,5.0,52,0.00,,CLR,0.00,696.00,VWS V14.01,2013-09-24 18:31:00,
2013-09-24 14:37:00,68.7,49.9,29.98,NW,319,1.0,4.0,51,0.00,,CLR,0.00,689.00,VWS V14.01,2013-09-24 18:37:00,
2013-09-24 14:42:00,68.7,50.4,29.98,WNW,300,6.0,6.0,52,0.00,,CLR,0.00,679.00,VWS V14.01,2013-09-24 18:42:00,
2013-09-24 14:47:00,68.6,48.7,29.98,ENE,78,0.0,3.0,49,0.00,,CLR,0.00,670.00,VWS V14.01,2013-09-24 18:47:00,
2013-09-24 14:52:00,68.8,49.4,29.97,NNW,338,0.0,4.0,50,0.00,,CLR,0.00,664.00,VWS V14.01,2013-09-24 18:52:00,
2013-09-24 14:57:00,69.2,50.8,29.97,NNW,347,0.0,4.0,52,0.00,,CLR,0.00,657.00,VWS V14.01,2013-09-24 18:57:00,
2013-09-24 15:02:00,69.5,50.1,29.97,NNW,329,5.0,5.0,50,0.00,,CLR,0.00,647.00,VWS V14.01,2013-09-24 19:02:00,
2013-09-24 15:07:00,69.7,50.8,29.97,NNE,32,0.0,5.0,51,0.00,,CLR,0.00,638.00,VWS V14.01,2013-09-24 19:07:00,
2013-09-24 15:12:00,70.0,51.1,29.96,North,360,0.0,5.0,51,0.00,,CLR,0.00,629.00,VWS V14.01,2013-09-24 19:12:00,
2013-09-24 15:17:00,69.9,49.3,29.96,North,350,5.0,7.0,48,0.00,,CLR,0.00,617.00,VWS V14.01,2013-09-24 19:17:00,
2013-09-24 15:22:00,69.9,50.4,29.96,North,360,3.0,5.0,50,0.00,,CLR,0.00,608.00,VWS V14.01,2013-09-24 19:22:00,
2013-09-24 15:27:00,70.2,49.6,29.95,North,360,0.0,1.0,48,0.00,,CLR,0.00,596.00,VWS V14.01,2013-09-24 19:27:00,
2013-09-24 15:33:00,70.5,51.5,29.95,NNW,339,4.0,5.0,51,0.00,,CLR,0.00,587.00,VWS V14.01,2013-09-24 19:33:00,
2013-09-24 15:38:00,70.7,50.6,29.95,NNE,20,1.0,5.0,49,0.00,,CLR,0.00,575.00,VWS V14.01,2013-09-24 19:38:00,
2013-09-24 15:43:00,70.9,49.1,29.95,North,9,5.0,7.0,46,0.00,,CLR,0.00,566.00,VWS V14.01,2013-09-24 19:43:00,
2013-09-24 15:48:00,70.7,48.9,29.95,NW,323,1.0,6.0,46,0.00,,CLR,0.00,555.00,VWS V14.01,2013-09-24 19:48:00,
2013-09-24 15:53:00,70.5,47.6,29.95,NNW,344,0.0,3.0,44,0.00,,CLR,0.00,540.00,VWS V14.01,2013-09-24 19:53:00,
2013-09-24 15:58:00,70.9,49.1,29.95,NNE,24,0.0,5.0,46,0.00,,CLR,0.00,529.00,VWS V14.01,2013-09-24 19:58:00,
2013-09-24 16:03:00,71.0,48.6,29.95,North,355,0.0,5.0,45,0.00,,CLR,0.00,515.00,VWS V14.01,2013-09-24 20:03:00,
2013-09-24 16:08:00,71.1,50.4,29.95,North,349,0.0,5.0,48,0.00,,CLR,0.00,503.00,VWS V14.01,2013-09-24 20:08:00,
2013-09-24 16:14:00,71.3,48.9,29.94,NNW,331,2.0,5.0,45,0.00,,CLR,0.00,489.00,VWS V14.01,2013-09-24 20:14:00,
2013-09-24 16:19:00,71.3,48.9,29.94,NNW,348,4.0,4.0,45,0.00,,CLR,0.00,476.00,VWS V14.01,2013-09-24 20:19:00,
2013-09-24 16:24:00,71.3,50.0,29.94,NE,44,0.0,5.0,47,0.00,,CLR,0.00,464.00,VWS V14.01,2013-09-24 20:24:00,
2013-09-24 16:29:00,71.4,49.0,29.94,North,360,0.0,5.0,45,0.00,,CLR,0.00,450.00,VWS V14.01,2013-09-24 20:29:00,
2013-09-24 16:34:00,71.3,49.5,29.94,NNW,329,0.0,5.0,46,0.00,,CLR,0.00,436.00,VWS V14.01,2013-09-24 20:34:00,
2013-09-24 16:39:00,71.3,50.6,29.93,NNW,328,0.0,1.0,48,0.00,,CLR,0.00,422.00,VWS V14.01,2013-09-24 20:39:00,
2013-09-24 16:44:00,71.3,49.5,29.94,North,360,0.0,3.0,46,0.00,,CLR,0.00,406.00,VWS V14.01,2013-09-24 20:44:00,
2013-09-24 16:49:00,71.4,50.1,29.94,North,360,2.0,2.0,47,0.00,,CLR,0.00,392.00,VWS V14.01,2013-09-24 20:49:00,
2013-09-24 16:54:00,71.4,49.0,29.94,NNW,346,0.0,4.0,45,0.00,,CLR,0.00,380.00,VWS V14.01,2013-09-24 20:54:00,
2013-09-24 16:59:00,71.4,49.6,29.94,NNW,330,3.0,5.0,46,0.00,,CLR,0.00,366.00,VWS V14.01,2013-09-24 20:59:00,
2013-09-24 17:04:00,71.4,49.0,29.94,NNW,330,1.0,3.0,45,0.00,,CLR,0.00,350.00,VWS V14.01,2013-09-24 21:04:00,
2013-09-24 17:09:00,71.2,49.4,29.93,NNW,330,0.0,1.0,46,0.00,,CLR,0.00,334.00,VWS V14.01,2013-09-24 21:09:00,
2013-09-24 17:14:00,71.0,49.2,29.93,NNW,330,0.0,1.0,46,0.00,,CLR,0.00,320.00,VWS V14.01,2013-09-24 21:14:00,
2013-09-24 17:19:00,71.0,49.2,29.93,NNW,337,0.0,3.0,46,0.00,,CLR,0.00,304.00,VWS V14.01,2013-09-24 21:19:00,
2013-09-24 17:24:00,71.0,49.2,29.93,NNW,341,1.0,4.0,46,0.00,,CLR,0.00,287.00,VWS V14.01,2013-09-24 21:24:00,
2013-09-24 17:29:00,70.9,48.5,29.93,NNW,341,0.0,2.0,45,0.00,,CLR,0.00,213.00,VWS V14.01,2013-09-24 21:29:00,
2013-09-24 17:34:00,70.8,49.0,29.93,NNW,341,0.0,1.0,46,0.00,,CLR,0.00,200.00,VWS V14.01,2013-09-24 21:34:00,
2013-09-24 17:39:00,70.6,48.8,29.93,North,5,0.0,0.0,46,0.00,,CLR,0.00,28.00,VWS V14.01,2013-09-24 21:39:00,
2013-09-24 17:44:00,70.4,48.7,29.93,North,360,0.0,0.0,46,0.00,,CLR,0.00,32.00,VWS V14.01,2013-09-24 21:44:00,
2013-09-24 17:49:00,70.2,49.6,29.93,North,360,0.0,0.0,48,0.00,,CLR,0.00,26.00,VWS V14.01,2013-09-24 21:49:00,
2013-09-24 17:54:00,70.0,50.0,29.93,North,5,0.0,1.0,49,0.00,,CLR,0.00,26.00,VWS V14.01,2013-09-24 21:54:00,
2013-09-24 17:59:00,69.7,48.6,29.93,North,5,0.0,0.0,47,0.00,,CLR,0.00,25.00,VWS V14.01,2013-09-24 21:59:00,
2013-09-24 18:04:00,69.5,49.5,29.93,North,5,0.0,0.0,49,0.00,,CLR,0.00,25.00,VWS V14.01,2013-09-24 22:04:00,
2013-09-24 18:10:00,69.2,48.7,29.93,North,360,0.0,0.0,48,0.00,,CLR,0.00,25.00,VWS V14.01,2013-09-24 22:10:00,
2013-09-24 18:15:00,69.0,49.1,29.93,North,5,0.0,0.0,49,0.00,,CLR,0.00,23.00,VWS V14.01,2013-09-24 22:15:00,
2013-09-24 18:20:00,68.9,49.5,29.93,North,5,0.0,0.0,50,0.00,,CLR,0.00,21.00,VWS V14.01,2013-09-24 22:20:00,
2013-09-24 18:25:00,68.7,49.9,29.93,North,360,0.0,0.0,51,0.00,,CLR,0.00,42.00,VWS V14.01,2013-09-24 22:25:00,
2013-09-24 18:30:00,68.4,49.6,29.93,North,360,0.0,0.0,51,0.00,,CLR,0.00,19.00,VWS V14.01,2013-09-24 22:30:00,
2013-09-24 18:35:00,68.1,49.8,29.93,North,360,0.0,0.0,52,0.00,,CLR,0.00,18.00,VWS V14.01,2013-09-24 22:35:00,
2013-09-24 18:40:00,67.9,49.7,29.93,North,5,0.0,0.0,52,0.00,,CLR,0.00,16.00,VWS V14.01,2013-09-24 22:40:00,
2013-09-24 18:45:00,67.5,49.8,29.93,North,360,0.0,0.0,53,0.00,,CLR,0.00,12.00,VWS V14.01,2013-09-24 22:45:00,
2013-09-24 18:50:00,67.2,51.0,29.93,North,5,0.0,0.0,56,0.00,,CLR,0.00,11.00,VWS V14.01,2013-09-24 22:50:00,
2013-09-24 18:55:00,66.7,50.0,29.94,North,5,0.0,0.0,55,0.00,,CLR,0.00,9.00,VWS V14.01,2013-09-24 22:55:00,
2013-09-24 19:00:00,66.1,50.4,29.94,North,5,0.0,0.0,57,0.00,,CLR,0.00,5.00,VWS V14.01,2013-09-24 23:00:00,
2013-09-24 19:05:00,65.4,50.2,29.94,North,5,0.0,0.0,58,0.00,,CLR,0.00,0.00,VWS V14.01,2013-09-24 23:05:00,
2013-09-24 19:10:00,64.8,50.2,29.93,North,5,0.0,0.0,59,0.00,,CLR,0.00,0.00,VWS V14.01,2013-09-24 23:10:00,
2013-09-24 19:15:00,64.0,50.3,29.93,North,360,0.0,0.0,61,0.00,,CLR,0.00,0.00,VWS V14.01,2013-09-24 23:15:00,
2013-09-24 19:20:00,63.3,50.1,29.93,North,360,0.0,0.0,62,0.00,,CLR,0.00,0.00,VWS V14.01,2013-09-24 23:20:00,
2013-09-24 19:26:00,62.6,49.8,29.94,North,360,0.0,0.0,63,0.00,,CLR,0.00,0.00,VWS V14.01,2013-09-24 23:26:00,
2013-09-24 19:31:00,62.1,49.8,29.94,North,360,0.0,0.0,64,0.00,,CLR,0.00,0.00,VWS V14.01,2013-09-24 23:31:00,
2013-09-24 19:36:00,61.5,49.6,29.94,North,360,0.0,0.0,65,0.00,,CLR,0.00,0.00,VWS V14.01,2013-09-24 23:36:00,
2013-09-24 19:41:00,60.9,49.5,29.94,North,360,0.0,0.0,66,0.00,,CLR,0.00,0.00,VWS V14.01,2013-09-24 23:41:00,
2013-09-24 19:46:00,60.3,48.9,29.94,North,5,0.0,0.0,66,0.00,,CLR,0.00,0.00,VWS V14.01,2013-09-24 23:46:00,
2013-09-24 19:51:00,59.7,48.7,29.94,North,5,0.0,0.0,67,0.00,,CLR,0.00,0.00,VWS V14.01,2013-09-24 23:51:00,
2013-09-24 20:04:00,58.3,48.2,29.94,North,5,0.0,0.0,69,0.00,,CLR,0.00,0.00,VWS V14.01,2013-09-25 00:04:00,
2013-09-24 20:09:00,57.7,48.0,29.94,North,5,0.0,0.0,70,0.00,,CLR,0.00,0.00,VWS V14.01,2013-09-25 00:09:00,
2013-09-24 20:14:00,57.3,47.6,29.94,North,5,0.0,0.0,70,0.00,,CLR,0.00,0.00,VWS V14.01,2013-09-25 00:14:00,
2013-09-24 20:19:00,56.8,47.9,29.94,North,5,0.0,0.0,72,0.00,,CLR,0.00,0.00,VWS V14.01,2013-09-25 00:19:00,
2013-09-24 20:24:00,56.5,48.7,29.94,North,5,0.0,0.0,75,0.00,,CLR,0.00,0.00,VWS V14.01,2013-09-25 00:24:00,
2013-09-24 20:29:00,56.3,48.8,29.94,North,5,0.0,0.0,76,0.00,,CLR,0.00,0.00,VWS V14.01,2013-09-25 00:29:00,
2013-09-24 20:34:00,56.0,48.5,29.94,North,5,0.0,0.0,76,0.00,,CLR,0.00,0.00,VWS V14.01,2013-09-25 00:34:00,
2013-09-24 20:40:00,55.6,47.8,29.94,North,5,0.0,0.0,75,0.00,,CLR,0.00,0.00,VWS V14.01,2013-09-25 00:40:00,
2013-09-24 20:45:00,55.3,48.2,29.94,North,5,0.0,0.0,77,0.00,,CLR,0.00,0.00,VWS V14.01,2013-09-25 00:45:00,
2013-09-24 20:50:00,55.0,48.3,29.94,North,5,0.0,0.0,78,0.00,,CLR,0.00,0.00,VWS V14.01,2013-09-25 00:50:00,
2013-09-24 20:55:00,54.6,47.9,29.93,North,5,0.0,0.0,78,0.00,,CLR,0.00,0.00,VWS V14.01,2013-09-25 00:55:00,
2013-09-24 21:00:00,54.4,47.7,29.93,North,360,0.0,0.0,78,0.00,,CLR,0.00,0.00,VWS V14.01,2013-09-25 01:00:00,
2013-09-24 21:05:00,54.1,47.7,29.93,North,5,0.0,0.0,79,0.00,,CLR,0.00,0.00,VWS V14.01,2013-09-25 01:05:00,
2013-09-24 21:10:00,53.7,47.3,29.93,North,5,0.0,0.0,79,0.00,,CLR,0.00,0.00,VWS V14.01,2013-09-25 01:10:00,
2013-09-24 21:15:00,53.3,47.0,29.93,North,5,0.0,0.0,79,0.00,,CLR,0.00,0.00,VWS V14.01,2013-09-25 01:15:00,
2013-09-24 21:20:00,53.0,46.7,29.93,North,5,0.0,0.0,79,0.00,,CLR,0.00,0.00,VWS V14.01,2013-09-25 01:20:00,
2013-09-24 21:25:00,52.7,46.7,29.93,North,5,0.0,0.0,80,0.00,,CLR,0.00,0.00,VWS V14.01,2013-09-25 01:25:00,
2013-09-24 21:30:00,52.4,46.4,29.93,North,5,0.0,0.0,80,0.00,,CLR,0.00,0.00,VWS V14.01,2013-09-25 01:30:00,
2013-09-24 21:35:00,52.1,46.5,29.94,North,360,0.0,0.0,81,0.00,,CLR,0.00,0.00,VWS V14.01,2013-09-25 01:35:00,
2013-09-24 21:40:00,51.9,46.6,29.93,North,5,0.0,0.0,82,0.00,,CLR,0.00,0.00,VWS V14.01,2013-09-25 01:40:00,
2013-09-24 21:45:00,51.6,46.3,29.93,North,5,0.0,0.0,82,0.00,,CLR,0.00,0.00,VWS V14.01,2013-09-25 01:45:00,
2013-09-24 21:51:00,51.4,46.7,29.93,North,360,0.0,0.0,84,0.00,,CLR,0.00,0.00,VWS V14.01,2013-09-25 01:51:00,
2013-09-24 21:56:00,51.1,46.1,29.93,North,360,0.0,0.0,83,0.00,,CLR,0.00,0.00,VWS V14.01,2013-09-25 01:56:00,
2013-09-24 22:01:00,50.8,46.2,29.93,North,360,0.0,0.0,84,0.00,,CLR,0.00,0.00,VWS V14.01,2013-09-25 02:01:00,
2013-09-24 22:06:00,50.6,46.0,29.93,North,5,0.0,0.0,84,0.00,,CLR,0.00,0.00,VWS V14.01,2013-09-25 02:06:00,
2013-09-24 22:11:00,50.4,46.1,29.93,North,5,0.0,0.0,85,0.00,,CLR,0.00,0.00,VWS V14.01,2013-09-25 02:11:00,
2013-09-24 22:16:00,50.3,46.3,29.93,North,5,0.0,0.0,86,0.00,,CLR,0.00,0.00,VWS V14.01,2013-09-25 02:16:00,
2013-09-24 22:22:00,50.1,46.1,29.93,North,360,0.0,0.0,86,0.00,,CLR,0.00,0.00,VWS V14.01,2013-09-25 02:22:00,
2013-09-24 22:27:00,50.0,46.3,29.93,North,5,0.0,0.0,87,0.00,,CLR,0.00,0.00,VWS V14.01,2013-09-25 02:27:00,
2013-09-24 22:32:00,49.9,46.5,29.94,North,5,0.0,0.0,88,0.00,,CLR,0.00,0.00,VWS V14.01,2013-09-25 02:32:00,
2013-09-24 22:37:00,49.8,46.7,29.94,North,360,0.0,0.0,89,0.00,,CLR,0.00,0.00,VWS V14.01,2013-09-25 02:37:00,
2013-09-24 22:42:00,49.7,46.6,29.94,North,5,0.0,0.0,89,0.00,,CLR,0.00,0.00,VWS V14.01,2013-09-25 02:42:00,
2013-09-24 22:47:00,49.6,46.8,29.94,North,5,0.0,0.0,90,0.00,,CLR,0.00,0.00,VWS V14.01,2013-09-25 02:47:00,
2013-09-24 22:53:00,49.6,46.8,29.94,North,5,0.0,0.0,90,0.00,,CLR,0.00,0.00,VWS V14.01,2013-09-25 02:53:00,
2013-09-24 22:58:00,49.5,46.7,29.94,North,5,0.0,0.0,90,0.00,,CLR,0.00,0.00,VWS V14.01,2013-09-25 02:58:00,
2013-09-24 23:03:00,49.3,46.8,29.94,North,5,0.0,0.0,91,0.00,,CLR,0.00,0.00,VWS V14.01,2013-09-25 03:03:00,
2013-09-24 23:08:00,49.2,46.7,29.94,North,5,0.0,0.0,91,0.00,,CLR,0.00,0.00,VWS V14.01,2013-09-25 03:08:00,
2013-09-24 23:13:00,49.0,46.5,29.94,North,5,0.0,0.0,91,0.00,,CLR,0.00,0.00,VWS V14.01,2013-09-25 03:13:00,
2013-09-24 23:19:00,48.9,46.4,29.94,North,5,0.0,0.0,91,0.00,,CLR,0.00,0.00,VWS V14.01,2013-09-25 03:19:00,
2013-09-24 23:24:00,48.7,46.2,29.94,North,5,0.0,0.0,91,0.00,,CLR,0.00,0.00,VWS V14.01,2013-09-25 03:24:00,
2013-09-24 23:29:00,48.5,46.0,29.95,North,360,0.0,0.0,91,0.00,,CLR,0.00,0.00,VWS V14.01,2013-09-25 03:29:00,
2013-09-24 23:34:00,48.3,45.8,29.95,North,360,0.0,0.0,91,0.00,,CLR,0.00,0.00,VWS V14.01,2013-09-25 03:34:00,
2013-09-24 23:39:00,48.1,45.6,29.95,North,360,0.0,0.0,91,0.00,,CLR,0.00,0.00,VWS V14.01,2013-09-25 03:39:00,
2013-09-24 23:44:00,48.0,45.5,29.95,North,5,0.0,0.0,91,0.00,,CLR,0.00,0.00,VWS V14.01,2013-09-25 03:44:00,
2013-09-24 23:50:00,47.9,45.4,29.95,North,5,0.0,0.0,91,0.00,,CLR,0.00,0.00,VWS V14.01,2013-09-25 03:50:00,
2013-09-24 23:55:00,47.7,45.2,29.95,North,5,0.0,0.0,91,0.00,,CLR,0.00,0.00,VWS V14.01,2013-09-25 03:55:00,